Weather History for Litchfield, MN

Change the Weather History Date:

Saturday, December 3, 2011

  Actual Average Record
Temperature  
Mean Temperature 26 °F -  
Max Temperature 33 °F 28 °F 60 °F (1998)
Min Temperature 19 °F 12 °F -23 °F (1985)
Degree Days  
Heating Degree Days 39    
Moisture  
Dew Point 22 °F    
Average Humidity 81    
Maximum Humidity 93    
Minimum Humidity 64    
Precipitation  
Precipitation 0.00 in - - ()
Sea Level Pressure  
Sea Level Pressure 30.02 in    
Wind  
Wind Speed 4 mph (West)    
Max Wind Speed 8 mph    
Max Gust Speed -    
Visibility 10 miles    
Events      
Averages and records for this station are not official NWS values.
T = Trace of Precipitation, MM = Missing Value Source: NWS Daily Summary

Daily Weather History Graph

Daily Weather History Graph

Search for Another Location

Airport:

Trip Planner

Search our weather history database for the weather conditions in past years. The results will help you decide how hot, cold, wet, or windy it might be!

Date:

Astronomy

Dec. 03, 2011 Rise Set
Actual Time 7:38 AM CST 4:37 PM CST
Civil Twilight 7:05 AM CST 5:10 PM CST
Nautical Twilight 6:28 AM CST 5:47 PM CST
Astronomical Twilight 5:52 AM CST 6:22 PM CST
Moon 12:55 PM CST (12/3) 12:52 AM CST (12/3)
Length of Visible Light 10h 05m
Length of Day
8h 58m
Waxing Gibbous, 63% of the Moon is Illuminated
Dec 3
Waxing Gibbous
Dec 10
Full
Dec 17
Last Quarter
Dec 24
New
Jan 1
First Quarter

Hourly Weather History & Observations

Time (CST) Temp. Windchill Dew Point Humidity Pressure Visibility Wind Dir Wind Speed Gust Speed Precip Events Conditions
12:13 AM 28.4 °F 24.6 °F 21.2 °F 74% 29.99 in 10.0 mi South 3.5 mph - N/A   Clear
12:33 AM 28.4 °F 22.2 °F 21.2 °F 74% 29.99 in 10.0 mi South 5.8 mph - N/A   Clear
12:53 AM 28.4 °F 24.6 °F 21.2 °F 74% 29.99 in 10.0 mi SSW 3.5 mph - N/A   Clear
1:13 AM 26.6 °F 20.0 °F 21.2 °F 80% 29.99 in 10.0 mi SSW 5.8 mph - N/A   Clear
1:33 AM 26.6 °F 20.0 °F 21.2 °F 80% 29.99 in 10.0 mi SSW 5.8 mph - N/A   Clear
1:52 AM 26.6 °F 21.2 °F 21.2 °F 80% 29.99 in 10.0 mi SSW 4.6 mph - N/A   Clear
2:13 AM 26.6 °F 22.6 °F 21.2 °F 80% 29.99 in 10.0 mi South 3.5 mph - N/A   Clear
2:33 AM 24.8 °F 19.1 °F 21.2 °F 86% 29.99 in 10.0 mi South 4.6 mph - N/A   Clear
2:52 AM 24.8 °F - 21.2 °F 86% 29.99 in 10.0 mi Calm Calm - N/A   Clear
3:13 AM 24.8 °F - 21.2 °F 86% 29.99 in 10.0 mi Calm Calm - N/A   Clear
3:33 AM 24.8 °F - 21.2 °F 86% 29.99 in 10.0 mi Calm Calm - N/A   Clear
3:52 AM 24.8 °F - 21.2 °F 86% 30.00 in 10.0 mi Calm Calm - N/A   Clear
4:13 AM 23.0 °F 18.4 °F 21.2 °F 93% 30.01 in 10.0 mi SSW 3.5 mph - N/A   Clear
4:32 AM 23.0 °F - 21.2 °F 93% 30.01 in 10.0 mi Calm Calm - N/A   Clear
4:53 AM 23.0 °F 18.4 °F 19.4 °F 86% 30.01 in 10.0 mi SSW 3.5 mph - N/A   Clear
5:13 AM 21.2 °F - 19.4 °F 93% 30.01 in 10.0 mi Calm Calm - N/A   Clear
5:33 AM 21.2 °F 16.4 °F 19.4 °F 93% 30.02 in 10.0 mi SSW 3.5 mph - N/A   Clear
5:53 AM 21.2 °F 16.4 °F 19.4 °F 93% 30.02 in 10.0 mi SW 3.5 mph - N/A   Clear
6:13 AM 21.2 °F 16.4 °F 19.4 °F 93% 30.03 in 10.0 mi SSW 3.5 mph - N/A   Clear
6:33 AM 21.2 °F - 19.4 °F 93% 30.02 in 10.0 mi Calm Calm - N/A   Clear
6:53 AM 21.2 °F - 19.4 °F 93% 30.02 in 10.0 mi Calm Calm - N/A   Clear
7:13 AM 19.4 °F 14.3 °F 17.6 °F 93% 30.05 in 10.0 mi SSW 3.5 mph - N/A   Clear
7:33 AM 19.4 °F - 17.6 °F 93% 30.04 in 10.0 mi Calm Calm - N/A   Clear
7:53 AM 21.2 °F - 19.4 °F 93% 30.03 in 10.0 mi Calm Calm - N/A   Clear
8:13 AM 21.2 °F - 19.4 °F 93% 30.04 in 10.0 mi Calm Calm - N/A   Clear
8:33 AM 21.2 °F 16.4 °F 19.4 °F 93% 30.06 in 10.0 mi SSW 3.5 mph - N/A   Clear
8:53 AM 23.0 °F 18.4 °F 19.4 °F 86% 30.06 in 10.0 mi WSW 3.5 mph - N/A   Clear
9:13 AM 24.8 °F - 21.2 °F 86% 30.04 in 10.0 mi Calm Calm - N/A   Clear
9:33 AM 26.6 °F - 21.2 °F 80% 30.04 in 10.0 mi Calm Calm - N/A   Clear
9:53 AM 28.4 °F - 24.8 °F 86% 30.04 in 10.0 mi Calm Calm - N/A   Clear
10:13 AM 30.2 °F 24.3 °F 24.8 °F 80% 30.04 in 10.0 mi NW 5.8 mph - N/A   Clear
10:33 AM 30.2 °F - 24.8 °F 80% 30.04 in 10.0 mi Calm Calm - N/A   Scattered Clouds
10:53 AM 30.2 °F 26.7 °F 26.6 °F 86% 30.08 in 10.0 mi WSW 3.5 mph - N/A   Scattered Clouds
11:13 AM 32.0 °F 27.5 °F 26.6 °F 80% 30.07 in 10.0 mi WNW 4.6 mph - N/A   Scattered Clouds
11:33 AM 32.0 °F 26.4 °F 26.6 °F 80% 30.06 in 10.0 mi WNW 5.8 mph - N/A   Scattered Clouds
11:53 AM 32.0 °F 25.6 °F 26.6 °F 80% 30.05 in 10.0 mi WNW 6.9 mph - N/A   Scattered Clouds
12:13 PM 33.8 °F 29.6 °F 26.6 °F 75% 30.03 in 10.0 mi NW 4.6 mph - N/A   Clear
12:33 PM 33.8 °F 30.8 °F 26.6 °F 75% 30.01 in 10.0 mi WNW 3.5 mph - N/A   Clear
12:53 PM 33.8 °F 28.6 °F 26.6 °F 75% 30.00 in 10.0 mi NW 5.8 mph - N/A   Clear
1:13 PM 33.8 °F 29.6 °F 26.6 °F 75% 30.00 in 10.0 mi WNW 4.6 mph - N/A   Clear
1:33 PM 33.8 °F 27.7 °F 26.6 °F 75% 30.00 in 10.0 mi NW 6.9 mph - N/A   Clear
2:13 PM 33.8 °F 27.0 °F 24.8 °F 70% 29.99 in 10.0 mi NW 8.1 mph - N/A   Scattered Clouds
2:33 PM 33.8 °F 27.0 °F 24.8 °F 70% 30.00 in 10.0 mi NW 8.1 mph - N/A   Scattered Clouds
2:53 PM 32.0 °F 25.6 °F 23.0 °F 69% 30.00 in 10.0 mi NW 6.9 mph - N/A   Scattered Clouds
3:13 PM 32.0 °F 27.5 °F 23.0 °F 69% 30.00 in 10.0 mi NW 4.6 mph - N/A   Scattered Clouds
3:33 PM 32.0 °F 24.8 °F 23.0 °F 69% 29.98 in 10.0 mi NNW 8.1 mph - N/A   Scattered Clouds
3:53 PM 32.0 °F 25.6 °F 23.0 °F 69% 29.99 in 10.0 mi NW 6.9 mph - N/A   Scattered Clouds
4:13 PM 32.0 °F 25.6 °F 21.2 °F 64% 30.00 in 10.0 mi NNW 6.9 mph - N/A   Scattered Clouds
4:33 PM 30.2 °F 25.4 °F 21.2 °F 69% 30.01 in 10.0 mi WNW 4.6 mph - N/A   Scattered Clouds
4:53 PM 30.2 °F 25.4 °F 21.2 °F 69% 30.01 in 10.0 mi NW 4.6 mph - N/A   Mostly Cloudy
5:13 PM 30.2 °F 24.3 °F 21.2 °F 69% 30.01 in 10.0 mi NW 5.8 mph - N/A   Mostly Cloudy
5:33 PM 30.2 °F 25.4 °F 21.2 °F 69% 30.01 in 10.0 mi NW 4.6 mph - N/A   Overcast
5:53 PM 30.2 °F 26.7 °F 21.2 °F 69% 30.01 in 10.0 mi NW 3.5 mph - N/A   Mostly Cloudy
6:13 PM 30.2 °F 24.3 °F 21.2 °F 69% 29.99 in 10.0 mi NW 5.8 mph - N/A   Overcast
6:33 PM 30.2 °F 25.4 °F 21.2 °F 69% 29.99 in 10.0 mi NW 4.6 mph - N/A   Mostly Cloudy
6:53 PM 30.2 °F 23.4 °F 21.2 °F 69% 29.99 in 10.0 mi NW 6.9 mph - N/A   Mostly Cloudy
7:13 PM 30.2 °F 23.4 °F 23.0 °F 75% 29.99 in 10.0 mi NW 6.9 mph - N/A   Mostly Cloudy
7:33 PM 28.4 °F 20.4 °F 24.8 °F 86% 29.99 in 7.0 mi NW 8.1 mph - N/A Snow Light Snow
7:53 PM 28.4 °F 21.2 °F 24.8 °F 86% 29.99 in 4.0 mi NW 6.9 mph - N/A Snow Light Snow
8:13 PM 28.4 °F 21.2 °F 26.6 °F 93% 29.98 in 3.0 mi NW 6.9 mph - N/A Snow Light Snow
8:33 PM 28.4 °F 22.2 °F 26.6 °F 93% 29.98 in 4.0 mi NW 5.8 mph - N/A Snow Light Snow
8:53 PM 28.4 °F 21.2 °F 24.8 °F 86% 29.98 in 4.0 mi NW 6.9 mph - N/A Snow Light Snow
9:13 PM 28.4 °F 20.4 °F 24.8 °F 86% 29.98 in 5.0 mi NW 8.1 mph - N/A Snow Light Snow
9:33 PM 26.6 °F 19.1 °F 24.8 °F 93% 29.98 in 4.0 mi NW 6.9 mph - N/A Snow Light Snow
9:53 PM 26.6 °F 20.0 °F 26.6 °F 100% 29.97 in 4.0 mi NW 5.8 mph - N/A Snow Light Snow
10:13 PM 26.6 °F 20.0 °F 26.6 °F 100% 29.97 in 3.0 mi NW 5.8 mph - N/A Snow Light Snow
10:33 PM 26.6 °F 19.1 °F 24.8 °F 93% 29.97 in 7.0 mi NW 6.9 mph - N/A   Overcast
10:53 PM 28.4 °F 17.5 °F 24.8 °F 86% 29.97 in 10.0 mi NNW 13.8 mph - N/A   Overcast
11:13 PM 28.4 °F 17.0 °F 24.8 °F 86% 29.97 in 10.0 mi NNW 15.0 mph 18.4 mph N/A   Overcast
11:33 PM 26.6 °F 17.5 °F 24.8 °F 93% 29.97 in 10.0 mi NNW 9.2 mph - N/A   Overcast
11:53 PM 26.6 °F 15.7 °F 24.8 °F 93% 29.97 in 10.0 mi NNW 12.7 mph 16.1 mph N/A   Overcast